Regional Weather Roundup
Issued by NWS Upton, NY

Current Version | Previous Version | Text Only | Print | Product List | Glossary On
Versions: 1 2 3 4 5 6 7 8 9 10 11 12 13 14 15 16 17 18 19 20 21 22 23 24 25 26 27 28
000
ASUS41 KOKX 202305
RWROKX

Regional Weather Roundup
National Weather Service New York NY
700 PM EDT FRI APR 20 2018

Note: "FAIR" indicates few or no clouds below 12,000 feet with no
significant weather and/or obstructions to visibility.

NYZ071-072-176-178-NJZ106-104-210000-
New York City Metro Area

CITY           SKY/WX    TMP DP  RH WIND       PRES   REMARKS
Central Park   FAIR      45  23  42 NW10G21   30.29R
Bronx Bot Gard   N/A     45  23  42 N2        30.27R
Bronx Lehman C   N/A     45  25  45 NW15        N/A
LaGuardia Arpt FAIR      47  25  42 N14       30.26R
Queens College   N/A     45  25  45 NW17G29     N/A
Kennedy Intl   FAIR      46  24  42 NW18      30.27R
Breezy Point     N/A     45 N/A N/A N18G25      N/A
Brooklyn Coll    N/A     46  25  42 W15         N/A
Staten Island    N/A     46  23  39 N15         N/A
Newark/Liberty FAIR      47  22  37 NW20G30   30.28R
Teterboro      FAIR      46  24  42 N17G31    30.27R
$$

NYZ177-179-078>081-210000-
Long Island New York

CITY           SKY/WX    TMP DP  RH WIND       PRES   REMARKS
Jones Beach      N/A     46 N/A N/A NW20        N/A
Wantagh          N/A     46  27  46 NW18        N/A
Hempstead        N/A     46  28  49 NW8       30.28R
Matinecock Pt    N/A     46 N/A N/A NW25        N/A
Farmingdale    FAIR      47  25  42 NW17G23   30.23R
MacArthur/ISP  FAIR      49  26  41 W12G21    30.21R
Stony Brook      N/A     46  30  53 N10         N/A
Shirley        FAIR      49  28  44 NW12G21   30.21R
Mt Sinai Harb    N/A     46 N/A N/A NW8         N/A
Westhampton    FAIR      49  24  37 NW15G23   30.21R
East Hampton   FAIR      47  28  47 NW10      30.18R
Southold         N/A     46  32  57 NW14        N/A
Montauk          N/A     49  33  54 NW8       30.18R
$$

NYZ052-065-067-210000-
Hudson Valley

CITY           SKY/WX    TMP DP  RH WIND       PRES   REMARKS
White Plains   FAIR      44  23  43 NW17G25   30.23R
Larchmont Harb   N/A     45 N/A N/A W20G25      N/A
Croton On Huds   N/A     45 N/A N/A W23         N/A
Somers           N/A     43  25  49 NW7         N/A
Brewster         N/A     43  25  49 NW9         N/A
Newburgh       PTCLDY    43  25  49 NW16G23   30.28R
Montgomery     FAIR      42  24  49 NW15G28   30.27R
Otisville        N/A     39  25  56 NW8         N/A  WCI  34
Warwick          N/A     41  25  52 NW10        N/A
Suffern          N/A     41  23  48 NW10        N/A
Poughkeepsie   FAIR      43  22  43 NW15G24   30.27R
Albany         MOCLDY    41  23  48 NW18      30.29R
$$

NJZ001-105-106-008-010-013-015-019>022-104-210000-
New Jersey

CITY           SKY/WX    TMP DP  RH WIND       PRES   REMARKS
Newark/Liberty FAIR      47  22  37 NW20G30   30.28R
Teterboro      FAIR      46  24  42 N17G31    30.27R
Caldwell       FAIR      44  22  41 N8G26     30.29R
Somerville     FAIR      46  23  40 MISG      30.27R
Linden         FAIR      46  22  38 N12G22    30.29R
Perth Amboy      N/A     46 N/A N/A NW20G29     N/A
Sussex         FAIR      42  23  46 VRB7      30.29S
Andover          N/A     42  22  44 N9        30.29R
Trenton        FAIR      48  24  39 N15G25    30.28R
Millville      FAIR      53  25  33 NW14G21   30.26R
Atlantic City  FAIR      53  27  36 NW13      30.25R
Wrightstown    FAIR      49  26  39 N17G25    30.24R
Toms River     FAIR      50  25  37 N12G23    30.26R
Belmar         FAIR      48  24  39 NW18G25   30.26R
$$

PAZ047>061-062-071-210000-
Eastern Pennsylvania

CITY           SKY/WX    TMP DP  RH WIND       PRES   REMARKS
Philadelphia   FAIR      52  24  33 NW18G24   30.28R
Allentown      FAIR      47  23  38 N17G25    30.31R
Scranton       MOCLDY    41  24  51 N18G25    30.31R
$$

CTZ002-004>006-009-010-012-RIZ004-006-007-MAZ004-011-015-210000-
Southern New England

 In CT

CITY           SKY/WX    TMP DP  RH WIND       PRES   REMARKS
Bradley Intl   FAIR      45  25  45 NW18G24   30.22R
Hartford       FAIR      46  25  43 NW15G26   30.22R
Danbury        MOCLDY    45  24  43 NW12G21   30.24R
Wtrbury/Oxford FAIR      42  25  50 NW12G23   30.22R
Norwalk Harbor   N/A     46 N/A N/A NW18G24     N/A
Bridgeport     FAIR      49  24  37 N16G24    30.21R
Meriden        FAIR      46  24  42 NW16G25   30.22R
New Haven      FAIR      48  25  40 NW10G20   30.22R
Chester        FAIR      48  23  37 NW10G17   30.19R
Groton         FAIR      50  26  39 NW13      30.16R
Willimantic    FAIR      49  26  41 NW13G23   30.18R

 In RI

CITY           SKY/WX    TMP DP  RH WIND       PRES   REMARKS
Providence     MOCLDY    50  26  39 N12       30.15R
Block Island   FAIR      48  31  51 NW13      30.16R
Westerly       FAIR      51  27  39 NW9G23    30.16R

In MA

CITY           SKY/WX    TMP DP  RH WIND       PRES   REMARKS
Boston         MOCLDY    48  26  42 NW18G29   30.15R
Worcester      CLOUDY    43  23  45 NW14      30.16R
Westfield      CLOUDY    44  25  47 NW20G26   30.22R
Provincetown   CLOUDY    46  34  62 NW17      30.13R
Nantucket      CLOUDY    47  31  53 NW6       30.12R
$$

ANZ330-335-338-340-345-350-353-355-210000-
Coastal Marine Observations


STATION/POSITION TIME  SKY/WX   TEMP    WIND        PRES    VSBY  WAVE
                                AIR SEA DIR/SP/G                  HT/PER
                 (UTC)          (F)     (DEG/KT/KT) (MB)    (MI)  (FT/S)
NY Harb Entrance 2250            46 44  330/ 16/ 23 1024.4          2/ 4
20 S Fire Island 2250            46 43  300/ 14/ 14 1023.5          2/ 4
23 SSW Montauk P 2250            46 42  280/ 10/ 14 1022.1          3/11
15 E Barnegat Li 2230               45                N/A           2/11
Hudson Canyon    2250            44 44  270/ 12/ 14 1023.3          4/ 5
Kings Point      2224            45 45  360/ 17/ 20 1025.3
Execution Rocks  NOT AVBL
Western LI Sound NOT AVBL
Central LI Sound 2230            47     300/ 14/ 17   N/A           2
Robbins Reef     2224            46     300/ 23/ 29 1025.0
$$


>>>>>>>>>>>>>>>>>>>>>>>>>>>> KEY <<<<<<<<<<<<<<<<<<<<<<<<<<<
>                                                          <
>     SKY/WX - Sky Condition/Present Weather               <
>     TMP    - Temperature in Fahrenheit                   <
>     DP     - Dew Point in Fahrenheit                     <
>     RH     - Relative Humidity in Percent                <
>     WIND   - Direction (from) and Speed in MPH           <
>     PRES   - Mean Sea Level Pressure (inches of Hg)      <
>     WCI    - Wind Chill Index                            <
>     VSB    - Visibility in Miles                         <
>     HX     - Heat Index                                  <
>     TC     - Temperature in Celsius                      <
>     VRB    - Varibale Wind Direction                     <
>                                                          <
>>>>>>>>>>>>>>>>>>>>>>>>>>>> KEY <<<<<<<<<<<<<<<<<<<<<<<<<<<




USA.gov is the U.S. government's official web portal to all federal, state and local government web resources and services.